Regional Weather Roundup
Issued by NWS

Home | Current Version | Previous Version | Graphics & Text | Print | Product List | Glossary On
Versions: 1 2 3 4 5 6 7 8 9 10 11 12 13 14 15 16 17 18 19 20 21 22 23 24 25 26 27 28 29 30 31 32 33 34 35 36 37 38 39 40 41 42 43 44 45 46 47 48 49 50
391
ASUS43 KLSX 200457
RWRMO

WEATHER SUMMARY FOR MISSOURI
NATIONAL WEATHER SERVICE SPRINGFIELD MO
1200 AM CDT SUN AUG 20 2017

NOTE: "FAIR" INDICATES FEW OR NO CLOUDS BELOW 12,000 FEET WITH NO
       SIGNIFICANT WEATHER AND/OR OBSTRUCTIONS TO VISIBILITY.
       CURRENT SKY AND/OR WEATHER CONDITIONS ARE NOT AVAILABLE FOR
       CHILLICOTHE AND FARMINGTON.

MOZ001>031-035>038-043-044-053-054-200600-
...NORTHERN AND WESTERN MISSOURI...

CITY           SKY/WX    TMP DP  RH WIND       PRES   REMARKS
KANSAS CTY INT CLOUDY    77  72  84 S12       29.93F
LEE`S SUMMIT   CLEAR     80  74  81 S13       29.95F
ST JOSEPH      CLEAR     75  71  87 SE5       29.91S
CHILLICOTHE      N/A     68  67  96 CALM      29.95F

$$
MOZ066>068-077>081-088>096-101>105-200600-
...SOUTHWEST MISSOURI...

CITY           SKY/WX    TMP DP  RH WIND       PRES   REMARKS
SPRINGFIELD    PTCLDY    78  74  87 S8        30.01R
JOPLIN         PTCLDY    82  76  81 S8        29.98S

$$
MOZ032>034-039>042-045>050-055>058-069>072-200600-
...CENTRAL MISSOURI...

CITY           SKY/WX    TMP DP  RH WIND       PRES   REMARKS
COLUMBIA       NOT AVBL
JEFFERSON CITY CLEAR     71  71 100 CALM      29.97R
ROLLA          CLEAR     70  67  90 S6        30.01R
SEDALIA        CLEAR     73  72  96 SE3       29.97S
WARRENSBURG    CLEAR     73  70  88 SE5       29.95S

$$
MOZ051-052-059>065-200600-
...EAST CENTRAL MISSOURI...

CITY           SKY/WX    TMP DP  RH WIND       PRES   REMARKS
ST LOUIS INTL  PTCLDY    81  68  64 SE5       29.97R

$$
MOZ072>076-082>087-097>100-106>115-200600-
...SOUTH CENTRAL AND SOUTHEAST MISSOURI...

CITY           SKY/WX    TMP DP  RH WIND       PRES   REMARKS
CAPE GIRARDEAU CLEAR     75  71  87 CALM      29.98R
POPLAR BLUFF   CLEAR     76  74  93 S3        29.98R
WEST PLAINS    CLOUDY    77  71  82 S6        30.04R

$$



USA.gov is the U.S. government's official web portal to all federal, state and local government web resources and services.